ASTRA 5B

Last updated on Thu Oct 30 2025 00:02:49 GMT+0000 (Coordinated Universal Time)

1 39617U 14011B 25302.47558440 .00000147 00000+0 00000+0 0 9992 2 39617 0.0525 328.2115 0004206 261.4772 3.0922 1.00271647 42351
UTC large
Height (km)
Speed (km/s)
/
Latitude / Longitude
Inclination (degrees)
Orbital Period (minutes)
Azimuth
Elevation
Range (km)
Doppler Factor

Next 0 passes for location: London (51.5072 / 0.1276)

Sorry there are no passes over London.